www.pogodaiklimat.ru

ПОГОДА в Элизабет-Сити, NC

  • Прогноз погоды в Элизабет-Сити
  • Монитор погоды в Элизабет-Сити
  • Климат в Элизабет-Сити

АРХИВ ПОГОДЫ в Элизабет-Сити

Время (UTC), дата Ветер
(напр.,м/с)
 
Видим.   Явления Облачность Т
(С)
Тd
(С)
f
(%)
Тe
(С)
Тes
(С)
Комфортность

P
(гПа)

Po
(гПа)
Тmin
(С)
Tmax
(С)
R
(мм)
SD
(см)
10:54 22.05 СВ  16 км    ясно  +19.4  +12.2  63  +21  +21  комфорт  1022.8  1022.5  +12.8  +19.4     
11:54 22.05 СВ  16 км    ясно  +21.7  +8.9  44  +23  +24  комфорт  1023.4  1022.9         
12:54 22.05 СВ  16 км    ясно  +22.2  +9.4  44  +24  +25  комфорт  1023.7  1023.2         
13:54 22.05 СВ  16 км    ясно  +22.8  +9.4  42  +24  +30  комфорт  1024.4  1023.9         
14:54 22.05 СВ  16 км    ясно  +23.9  +9.4  40  +25  +30  комфорт  1024.6  1024.2         
15:54 22.05 СВ  16 км    ясно  +23.9  +10.0  41  +25  +31  комфорт  1024.5  1024.2         
16:54 22.05 В  16 км    ясно  +23.9  +10.0  41  +25  +37  комфорт  1024.7  1024.2  +19.4  +24.4     
17:54 22.05 СВ  16 км    ясно  +23.9  +9.4  40  +25  +36  комфорт  1024.6  1024.2         
18:54 22.05 СВ  16 км    ясно  +23.9  +8.9  38  +25  +34  комфорт  1024.5  1024.2         
19:54 22.05 СВ  16 км    ясно  +23.3  +8.9  40  +25  +29  комфорт  1024.7  1024.2         
20:54 22.05 В  16 км    ясно  +22.8  +8.9  41  +24  +27  комфорт  1024.7  1024.2         
21:54 22.05 В  16 км    ясно  +21.1  +8.9  46  +22  +25  комфорт  1024.5  1024.2         
22:54 22.05 В  16 км    ясно  +20.0  +8.9  49  +21  +22  комфорт  1024.9  1024.6  +20.0  +24.4     
23:54 22.05 В  16 км    ясно  +18.9  +10.6  59  +20  +20    1025.1  1024.6         
00:54 23.05 В  16 км    ясно  +18.9  +11.7  63  +20  +20    1025.1  1024.6         
01:54 23.05 В  16 км    ясно  +19.4  +11.7  61  +20  +20    1025.4  1024.9         
02:54 23.05 В  16 км    ясно  +18.9  +11.1  61  +20  +20    1025.4  1024.9         
03:54 23.05 В  16 км    ясно  +18.3  +11.7  65  +19  +19    1025.2  1024.9         
04:54 23.05 ЮВ  16 км    ясно  +18.3  +11.7  65  +19  +19    1024.8  1024.6  +17.8  +20.0     
05:54 23.05 ЮВ  16 км    ясно  +18.3  +12.2  68  +19  +19    1024.4  1023.9         
06:54 23.05   16 км    ясно  +16.7  +12.2  75  +17  +17    1024.2  1023.9         
07:54 23.05   16 км    ясно  +15.6  +12.2  80  +15  +15    1024.5  1024.2         
08:54 23.05   16 км    8/8 1500 м  +15.0  +12.8  87  +15  +15    1024.7  1024.2         
09:54 23.05 Ю  16 км    10/10 1500 м  +17.2  +14.4  84  +18  +18    1025.0  1024.6         
10:54 23.05 Ю  16 км    ясно  +21.1  +15.6  71  +24  +25  комфорт  1025.2  1024.9  +13.9  +21.1     
11:54 23.05 Ю  16 км    ясно  +23.9  +15.0  57  +27  +29  жарко  1025.0  1024.6         
12:54 23.05 ЮЗ  5
{8} 
16 км    8/8 1500 м  +24.4  +15.0  56  +27  +28  жарко  1024.7  1024.2         
13:54 23.05 ЮЗ  16 км    10/10 1650 м  +25.0  +16.1  58  +28  +28  жарко  1024.6  1024.2         
14:54 23.05 ЮЗ  16 км    8/8 1380 м  +27.2  +16.1  51  +31  +32  душно  1024.1  1023.6         
15:54 23.05 ЮЗ  16 км    2/2 1650 м  +28.3  +17.2  51  +32  +34  душно  1023.1  1022.9         
16:54 23.05 Ю  7
{10} 
16 км    ясно  +29.4  +17.8  50  +34  +37  очень
душно 
1021.8  1021.5  +21.1  +29.4     
17:54 23.05 ЮЗ  16 км    8/8 1320 м  +28.9  +18.3  53  +34  +35  очень
душно 
1021.1  1020.9         
18:54 23.05 ЮЗ  7
{10} 
16 км    5/5 1350 м  +30.0  +18.9  51  +35  +37  очень
душно 
1020.3  1019.8         
19:54 23.05 З  7
{10} 
16 км    8/5 1350 м
[средняя] 
+30.6  +19.4  51  +36  +37  очень
душно 
1019.1  1018.8         
20:54 23.05 ЮЗ  16 км    5/0 3300 м
[средняя] 
+30.0  +19.4  53  +36  +38  очень
душно 
1018.8  1018.5         
21:54 23.05 ЮЗ  16 км    ясно  +28.3  +18.9  57  +34  +35  очень
душно 
1018.1  1017.8         
22:54 23.05 З  16 км    ясно  +27.2  +18.9  60  +32  +33  очень
душно 
1018.3  1017.8  +27.2  +31.1     
23:54 23.05 Ю  16 км    ясно  +26.1  +20.0  69  +32  +32  очень
душно 
1018.2  1017.8         
00:54 24.05 Ю  16 км    ясно  +25.6  +19.4  69  +31  +31  очень
душно 
1018.2  1017.8         
01:54 24.05 ЮЗ  16 км    ясно  +25.0  +19.4  71  +30  +30  душно  1018.5  1018.1         
02:54 24.05 ЮЗ  16 км    ясно  +23.9  +19.4  76  +29  +29  душно  1017.9  1017.5         
03:54 24.05 ЮЗ  16 км    ясно  +23.9  +19.4  76  +29  +29  душно  1017.7  1017.1         
04:54 24.05 ЮЗ  16 км    ясно  +23.3  +19.4  79  +30  +30  очень
душно 
1017.0  1016.5  +23.3  +27.2     
05:54 24.05 ЮЗ  16 км    ясно  +23.3  +19.4  79  +30  +30  очень
душно 
1016.4  1016.1         
06:54 24.05 ЮЗ  16 км    ясно  +23.3  +20.0  82  +30  +30  очень
душно 
1015.8  1015.4         
07:54 24.05 ЮЗ  16 км    ясно  +22.8  +20.0  84  +29  +29  очень
душно 
1015.8  1015.4         
08:54 24.05 ЮЗ  16 км    ясно  +23.3  +20.0  82  +30  +30  очень
душно 
1015.5  1015.1         
09:54 24.05 ЮЗ  16 км    ясно  +23.9  +20.6  82  +30  +30  очень
душно 
1015.8  1015.4         

 

Местоположение метеостанции Elizabeth City Coast Guard Air Station: широта 36.2631 долгота -76.1828 высота над уровнем моря 3 м.

В архиве по умолчанию представлена погода в Элизабет-Сити за последние 1-2 суток. Обновление информации о фактической погоде в базе происходит ежечасно! Архивные данные за месяц целиком и за предыдущие месяцы Вы можете получить, выбрав интересующий диапазон дат из раскрывающегося списка и нажав кнопку "Ввод!".

Внимание! Архив погоды МЕТАР в базе сайта хранится не более 60 дней. Нет смысла пытаться выбрать более раннюю дату.

Внимание! Время в таблицах - всемирное. Для получения местного времени необходимо прибавить поправку, которая в Элизабет-Сити равна -5 ч.

Ветер - указаны скорость ветра в м/с и направление, откуда дует ветер: С - северный, СВ - северо-восточный, В - восточный, ЮВ - юго-восточный, Ю - южный, ЮЗ - юго-западный, З - западный, СЗ - северо-западный.
Видимость - горизонтальная дальность видимости в метрах или километрах. При видимости от 1 до 10 км при отсутствии осадков обычно наблюдается дымка, при ухудшении видимости до 1 км и менее - туман. В сухую погоду видимость может ухудшаться дымом, пылью или мглою.
Атмосферные явления - указаны явления, наблюдавшиеся в указанный момент времени.
Облачность - указаны через наклонную черту верхняя и нижняя облачность в баллах и высота нижней границы облаков в метрах. Внимание: облачность, как и прочие метеорологические величины в США измеряются автоматическими метеостанциями. Указанные значения в баллах носят условный характер и показывают процент времени, в течение которого, в среднем, лазерный луч высотомера отражался от облаков обратно.
T - Температура воздуха - температура, измеренная на высоте 2 м над землей.
Td - Температура точки росы - температура, при понижении до которой содержащийся в воздухе водяной пар достигнет насыщения.
f - Относительная влажность воздуха - влажноcть воздуха, измеренная на высоте 2 м над землей.
Te - Эффективная температура - температура, которую ощущает одетый по сезону человек в тени. Характеристика душности погоды. При расчете учитывается влияние влажности воздуха и скорости ветра на теплоощущения человека.
Tes - Эффективная температура на солнце - температура, которую ощущает человек, с поправкой на солнечный нагрев. Характеристика знойности погоды. Зависит от высоты солнца над горизонтом, облачности и скорости ветра. Ночью, в пасмурную погоду, а также при ветре 12 м/с и более поправка равна нулю.
P - Атмосферное давление - приведенное к уровню моря атмосферное давление.
Po - Атмосферное давление - измеренное на уровне метеостанции атмосферное давление.
Tmin - Минимальная температура - минимум температуры воздуха на высоте 2 м над землей.
Tmax - Максимальная температура - максимум температуры воздуха на высоте 2 м над землей.
R - Количество осадков - Количество выпавших осадков за 3 или 6 часов, мм.
SD - Снежный покров - Высота снежного покрова, см.